Wetterdaten: aktuell Donnerstag, 13.12.2018 03:24
Datum Zeit Temperatur Bodentemp. Luftfeuchte Luftdruck Regen Wind Richtung Richtung Sonnenschein
13.12.2018 03:24 1,2 C -2,3 C 96 % 1023 hPa 0,0 l/m 6,3 km/h (2 Bft) N-NO 20 0 min
13.12.2018 03:18 1,3 C -2,3 C 96 % 1023 hPa 0,0 l/m 7,5 km/h (2 Bft) N-NO 25 0 min
13.12.2018 03:14 1,4 C -2,2 C 96 % 1023 hPa 0,0 l/m 7,0 km/h (2 Bft) N-NO 30 0 min
13.12.2018 03:09 1,4 C -2,1 C 96 % 1023 hPa 0,0 l/m 7,6 km/h (2 Bft) N-NO 25 0 min
13.12.2018 03:04 1,4 C -2,1 C 96 % 1023 hPa 0,0 l/m 6,2 km/h (2 Bft) N-NO 30 0 min
13.12.2018 02:59 1,4 C -2,1 C 95 % 1023 hPa 0,0 l/m 9,6 km/h (2 Bft) N-NO 30 0 min
13.12.2018 02:54 1,4 C -2,1 C 95 % 1023 hPa 0,0 l/m 8,8 km/h (2 Bft) N-NO 25 0 min
13.12.2018 02:49 1,4 C -2,0 C 95 % 1023 hPa 0,0 l/m 5,6 km/h (2 Bft) N-NO 30 0 min
13.12.2018 02:43 1,4 C -2,0 C 94 % 1023 hPa 0,0 l/m 7,2 km/h (2 Bft) N-NO 30 0 min
13.12.2018 02:39 1,4 C -2,0 C 94 % 1023 hPa 0,0 l/m 5,9 km/h (2 Bft) NO 35 0 min
13.12.2018 02:34 1,4 C -2,0 C 94 % 1023 hPa 0,0 l/m 4,3 km/h (1 Bft) NO 35 0 min
13.12.2018 02:29 1,5 C -2,2 C 94 % 1023 hPa 0,0 l/m 3,7 km/h (1 Bft) N-NO 25 0 min
13.12.2018 02:24 1,4 C -2,0 C 94 % 1023 hPa 0,0 l/m 5,1 km/h (1 Bft) N-NO 30 0 min
13.12.2018 02:19 1,6 C -1,8 C 94 % 1023 hPa 0,0 l/m 5,5 km/h (2 Bft) N-NO 30 0 min
13.12.2018 02:14 1,5 C -1,8 C 93 % 1023 hPa 0,0 l/m 6,3 km/h (2 Bft) N-NO 30 0 min
13.12.2018 02:08 1,4 C -1,8 C 93 % 1023 hPa 0,0 l/m 5,9 km/h (2 Bft) NO 35 0 min
13.12.2018 02:04 1,3 C -2,0 C 92 % 1023 hPa 0,0 l/m 10,2 km/h (2 Bft) NO 35 0 min
13.12.2018 01:59 1,3 C -2,2 C 92 % 1023 hPa 0,0 l/m 10,2 km/h (2 Bft) NO 35 0 min
13.12.2018 01:54 1,4 C -2,0 C 92 % 1023 hPa 0,0 l/m 9,6 km/h (2 Bft) NO 40 0 min
13.12.2018 01:49 1,6 C -1,9 C 92 % 1023 hPa 0,0 l/m 10,8 km/h (2 Bft) NO22.5 45 0 min
13.12.2018 01:44 1,6 C -1,8 C 92 % 1023 hPa 0,0 l/m 8,2 km/h (2 Bft) NO 45 0 min
13.12.2018 01:39 1,6 C -1,7 C 91 % 1023 hPa 0,0 l/m 8,1 km/h (2 Bft) NO22.5 50 0 min
13.12.2018 01:33 1,8 C -1,8 C 91 % 1024 hPa 0,0 l/m 10,6 km/h (2 Bft) NO22.5 35 0 min
13.12.2018 01:29 1,9 C -1,8 C 91 % 1024 hPa 0,0 l/m 9,4 km/h (2 Bft) NO67.5 45 0 min
13.12.2018 01:24 2,3 C -1,5 C 91 % 1024 hPa 0,0 l/m 12,8 km/h (3 Bft) NO22.5 35 0 min
13.12.2018 01:19 2,5 C -1,3 C 91 % 1024 hPa 0,0 l/m 11,7 km/h (2 Bft) NO 35 0 min
13.12.2018 01:14 2,5 C -1,0 C 91 % 1024 hPa 0,0 l/m 5,4 km/h (2 Bft) N-NO 30 0 min
13.12.2018 01:09 2,6 C -1,1 C 91 % 1024 hPa 0,0 l/m 7,7 km/h (2 Bft) NO 35 0 min
13.12.2018 01:04 2,6 C -1,1 C 91 % 1024 hPa 0,0 l/m 6,8 km/h (2 Bft) N-NO 30 0 min
13.12.2018 00:58 2,6 C -1,0 C 91 % 1024 hPa 0,0 l/m 9,0 km/h (2 Bft) N-NO 25 0 min
13.12.2018 00:54 2,6 C -1,1 C 91 % 1024 hPa 0,0 l/m 7,5 km/h (2 Bft) N-NO 25 0 min
13.12.2018 00:49 2,6 C -1,1 C 91 % 1024 hPa 0,0 l/m 8,9 km/h (2 Bft) N-NO 15 0 min
13.12.2018 00:44 2,6 C -1,1 C 91 % 1024 hPa 0,0 l/m 7,0 km/h (2 Bft) N-NO 20 0 min
13.12.2018 00:39 2,6 C -1,0 C 91 % 1024 hPa 0,0 l/m 10,2 km/h (2 Bft) N-NO 25 0 min
13.12.2018 00:34 2,6 C -0,9 C 91 % 1024 hPa 0,0 l/m 7,1 km/h (2 Bft) N-NO 30 0 min
13.12.2018 00:29 2,6 C -1,0 C 91 % 1024 hPa 0,0 l/m 5,7 km/h (2 Bft) NO 35 0 min
13.12.2018 00:23 2,7 C -0,9 C 91 % 1024 hPa 0,0 l/m 10,6 km/h (2 Bft) N-NO 30 0 min
13.12.2018 00:19 2,7 C -0,9 C 91 % 1024 hPa 0,0 l/m 8,3 km/h (2 Bft) N-NO 25 0 min
13.12.2018 00:14 2,7 C -0,8 C 91 % 1024 hPa 0,0 l/m 4,0 km/h (1 Bft) NO 35 0 min
13.12.2018 00:09 2,7 C -0,9 C 91 % 1024 hPa 0,0 l/m 8,5 km/h (2 Bft) NO 40 0 min
13.12.2018 00:04 2,7 C -0,9 C 91 % 1024 hPa 0,0 l/m 3,5 km/h (1 Bft) NO 35 0 min
12.12.2018 23:58 2,7 C -1,0 C 91 % 1024 hPa 0,0 l/m 8,9 km/h (2 Bft) N-NO 25 0 min
12.12.2018 23:54 2,7 C -1,0 C 92 % 1024 hPa 0,0 l/m 7,3 km/h (2 Bft) N-NO 20 0 min
12.12.2018 23:49 2,7 C -1,0 C 92 % 1024 hPa 0,0 l/m 8,2 km/h (2 Bft) N-NO 20 0 min
12.12.2018 23:44 2,7 C -0,9 C 92 % 1024 hPa 0,0 l/m 9,2 km/h (2 Bft) N-NO 25 0 min
12.12.2018 23:39 2,7 C -1,0 C 93 % 1024 hPa 0,0 l/m 7,4 km/h (2 Bft) N-NO 25 0 min
12.12.2018 23:34 2,7 C -0,9 C 93 % 1024 hPa 0,0 l/m 6,5 km/h (2 Bft) N-NO 15 0 min
12.12.2018 23:29 2,7 C -0,9 C 94 % 1024 hPa 0,0 l/m 4,5 km/h (1 Bft) N-NO 15 0 min
12.12.2018 23:24 2,7 C -0,9 C 94 % 1024 hPa 0,0 l/m 0,0 km/h (0 Bft) N 10 0 min
_ Min-Zeit 19:49 19:29 13:44 01:39 - 04:04 - - -
Minimum _ 0,3 C -3,5 C 62 % 1023 hPa - 0,0 km/h (0 Bft) - - -
_ Max-Zeit 13:39 13:39 21:09 10:13 04:04 15:44 - - 11:29
Maximum _ 5,8 C 1,0 C 96 % 1026 hPa 0,0 l/m 16,0 km/h
N-NO (3 Bft)
- - 5 min
Durchschnitt _ 3,0 C -0,8 C 85 % 1024 hPa #0,0 l/m 3,6 km/h (1 Bft) N-NO - #0 min.